Flag for Germany Past Weather in Osterholz-Scharmbeck, Lower Saxony, Germany — Yesterday and Last 2 Weeks

Now
63 °F

Passing clouds.


Feels Like: 63 °F
Forecast: 60 / 73 °F
Wind: 5 mph from Southeast

Location: Bremen Airport

Current Time: May 31, 2016 at 6:15:49 AM

Latest Report: May 31, 2016 at 5:20 AM


Visibility: 4 mi

Pressure: 29.77 "Hg

Humidity: 94%

Dew Point: 61 °F

Location of Osterholz-ScharmbeckLocation

Past Weather in Osterholz-Scharmbeck — Graph

°F

Osterholz-Scharmbeck Temperature Yesterday

Maximum temperature yesterday: 79 °F (at 2:20 PM)
Minimum temperature yesterday: 59 °F (at 3:50 AM)
Average temperature yesterday: 67 °F

High & Low Weather Summary for the Past Weeks

 TemperatureHumidityPressure
High79 °F (May 22, 1:50 PM)100% (May 18, 4:20 AM)30.07 "Hg (May 18, 4:20 AM)
Low39 °F (May 16, 5:20 AM)43% (May 19, 1:50 PM)29.62 "Hg (May 30, 3:20 PM)
Average58 °F79%29.90 "Hg
* Reported May 16 5:20 AM — May 31 5:20 AM, Osterholz-Scharmbeck, Weather by CustomWeather, © 2016

Note: Actual official high and low records may vary slightly from our data, if they occured in-between our weather recording intervals... More about our weather records

Advertising

Osterholz-Scharmbeck Weather History for the Previous 24 Hours

Scroll right to see more
 ConditionsComfort  
Time TempWeatherWind HumidityBarometerVisibility
5:20 AM
Tue, May 31
63 °FPassing clouds.5 mph94%29.77 "Hg4 mi
4:50 AM63 °FPassing clouds.6 mph94%29.77 "Hg5 mi
4:20 AM63 °FPassing clouds.6 mph94%29.74 "HgN/A
3:50 AM63 °FPassing clouds.6 mph94%29.74 "HgN/A
3:20 AM63 °FPassing clouds.6 mph94%29.74 "HgN/A
2:50 AM61 °FPassing clouds.7 mph100%29.74 "HgN/A
2:20 AM61 °FClear.3 mph100%29.74 "Hg10 mi
1:50 AM61 °FClear.6 mph100%29.74 "Hg10 mi
1:20 AM63 °FClear.6 mph94%29.74 "Hg10 mi
12:50 AM63 °FClear.6 mph94%29.71 "Hg10 mi
12:20 AM63 °FPassing clouds.7 mph94%29.71 "HgN/A
11:50 PM
Mon, May 30
64 °FPassing clouds.7 mph94%29.71 "HgN/A
11:20 PM64 °FPartly cloudy.6 mph94%29.71 "HgN/A
10:50 PM64 °FPartly cloudy.6 mph94%29.71 "HgN/A
10:20 PM64 °FBroken clouds.8 mph88%29.71 "HgN/A
9:50 PM64 °FBroken clouds.8 mph88%29.71 "HgN/A
9:20 PM64 °FPartly sunny.9 mph88%29.68 "HgN/A
8:50 PM64 °FPartly sunny.7 mph88%29.65 "HgN/A
8:20 PM64 °FPartly sunny.7 mph88%29.65 "HgN/A
7:50 PM66 °FSprinkles. Broken clouds.14 mph83%29.65 "HgN/A
7:20 PM68 °FSprinkles. Broken clouds.10 mph83%29.68 "HgN/A
6:50 PM68 °FThunderstorms. Scattered clouds.9 mph78%29.65 "HgN/A
6:20 PM72 °FScattered showers. Scattered clouds.8 mph78%29.65 "HgN/A
5:50 PM70 °FThundershowers. Scattered clouds.8 mph73%29.62 "HgN/A
5:20 PM70 °FThunderstorms. Partly sunny.23 mph73%29.62 "HgN/A
4:50 PM79 °FThundershowers. Scattered clouds.14 mph58%29.62 "HgN/A
4:20 PM79 °FThunderstorms. Partly sunny.15 mph61%29.62 "HgN/A
3:50 PM79 °FSprinkles. Scattered clouds.15 mph61%29.62 "HgN/A
3:20 PM79 °FScattered showers. Scattered clouds.14 mph61%29.62 "HgN/A
2:50 PM79 °FScattered clouds.10 mph65%29.65 "HgN/A
2:20 PM79 °FScattered clouds.16 mph61%29.65 "HgN/A
1:50 PM77 °FScattered clouds.14 mph65%29.65 "HgN/A
1:20 PM75 °FBroken clouds.14 mph65%29.65 "HgN/A
12:50 PM77 °FPassing clouds.12 mph65%29.65 "HgN/A
12:20 PM75 °FPassing clouds.14 mph69%29.65 "HgN/A
11:50 AM73 °FPassing clouds.14 mph69%29.65 "HgN/A
11:20 AM73 °FPassing clouds.13 mph74%29.65 "HgN/A
10:50 AM72 °FScattered clouds.13 mph73%29.65 "HgN/A
10:20 AM70 °FPassing clouds.10 mph78%29.65 "HgN/A
9:50 AM70 °FScattered clouds.10 mph73%29.65 "HgN/A
9:20 AM68 °FPassing clouds.8 mph78%29.68 "HgN/A
8:50 AM68 °FPassing clouds.6 mph78%29.68 "HgN/A
8:20 AM64 °FClear.6 mph88%29.68 "Hg6 mi
7:50 AM63 °FScattered clouds.9 mph94%29.68 "Hg4 mi
7:20 AM61 °FFog.7 mph94%29.68 "Hg3 mi
6:50 AM59 °FFog.7 mph94%29.68 "Hg3 mi
6:20 AM59 °FFog.8 mph94%29.68 "Hg2 mi
Weather by CustomWeather, © 2016

See weather overviewHow to use our weather pages